Location: San Martino di Castrozza
(46.2667°N, 11.8000°E)
Time: 15:23:50
(UTC+00:00)

Milstar 3 - Pass Details

Date: 23 April 2021
Orbit: 1089 x 5155 km, 28.3° (Epoch: 08 May)

Event Time Altitude Azimuth Distance (km) Brightness Sun altitude
Exits shadow 01:24:49 19° 159° (SSE) 2,594 4.4 -24.0°
Drops below altitude 10° 01:29:18 10° 126° (SE) 3,578 5.4 -23.5°
Sets 01:34:05 0° 111° (ESE) 5,081 6.4 -23.0°
